This is the latest recevied weather packets stored in our database for station/object DL0BB-10. If no packets are shown the sender has not sent any weather packets the latest 10 day(s).
| Time | Temp. | Humidity | Pressure | Rain* | Wind** | Luminosity | Snow |
|---|---|---|---|---|---|---|---|
| 1787541262 | 25.56° C | 32% | 1021.1 hPa | - | - | - | - |
| 1787540361 | 25° C | 33% | 1021.3 hPa | - | - | - | - |
| 1787539466 | 25° C | 34% | 1021.4 hPa | - | - | - | - |
| 1787538566 | 25° C | 33% | 1021.4 hPa | - | - | - | - |
| 1787537666 | 25.56° C | 32% | 1021.5 hPa | - | - | - | - |
| 1787536765 | 25.56° C | 34% | 1021.5 hPa | - | - | - | - |
| 1787535865 | 25° C | 34% | 1021.6 hPa | - | - | - | - |
| 1787534965 | 25.56° C | 34% | 1021.5 hPa | - | - | - | - |
| 1787534065 | 26.11° C | 33% | 1021.6 hPa | - | - | - | - |
| 1787533165 | 25.56° C | 35% | 1021.7 hPa | - | - | - | - |
| 1787532265 | 25.56° C | 35% | 1021.7 hPa | - | - | - | - |
| 1787531365 | 25.56° C | 34% | 1021.8 hPa | - | - | - | - |
| 1787530464 | 26.11° C | 33% | 1021.9 hPa | - | - | - | - |
| 1787529564 | 25.56° C | 35% | 1022.1 hPa | - | - | - | - |
| 1787528664 | 25.56° C | 34% | 1022.2 hPa | - | - | - | - |
| 1787527764 | 26.11° C | 34% | 1022.2 hPa | - | - | - | - |
| 1787526864 | 26.67° C | 33% | 1022.3 hPa | - | - | - | - |
| 1787525963 | 25.56° C | 35% | 1022.4 hPa | - | - | - | - |
| 1787525063 | 25.56° C | 35% | 1022.5 hPa | - | - | - | - |
| 1787524162 | 26.11° C | 34% | 1022.4 hPa | - | - | - | - |
| 1787523262 | 26.67° C | 34% | 1022.5 hPa | - | - | - | - |
| 1787522362 | 25.56° C | 35% | 1022.4 hPa | - | - | - | - |
| 1787521462 | 26.11° C | 35% | 1022.2 hPa | - | - | - | - |
| 1787519661 | 26.67° C | 34% | 1022.4 hPa | - | - | - | - |
| 1787518760 | 26.11° C | 35% | 1022.5 hPa | - | - | - | - |
* Rain since midnight (hover to see other rain measurements)
** Current wind speed in m/s (hover to see current wind gust speed)